Regional Weather Roundup
Issued by NWS

Home | Current Version | Previous Version | Graphics & Text | Print | Product List | Glossary On
Versions: 1 2 3 4 5 6 7 8 9 10 11 12 13 14 15 16 17 18 19 20 21 22 23 24 25 26 27 28 29 30 31 32 33 34 35 36 37 38 39 40 41 42 43 44 45 46 47 48 49 50
000
ASUS43 KDTX 030510
RWRMI
MICHIGAN HOURLY REGIONAL WEATHER ROUNDUP
NATIONAL WEATHER SERVICE DETROIT/PONTIAC MI
1200 AM EST TUE MAR 03 2015

NOTE: "FAIR" INDICATES FEW OR NO CLOUDS BELOW 12,000 FEET WITH NO
SIGNIFICANT WEATHER AND/OR OBSTRUCTION TO VISIBILITY.

MIZ047>049-052>055-059>063-066>070-074>076-081>083-030600-
SOUTHEAST LOWER MICHIGAN

CITY           SKY/WX    TMP DP  RH WIND       PRES   REMARKS
ADRIAN         MOCLDY    20  14  77 SW7       30.35F WCI  11
ALMA           FAIR      22  15  75 S6        30.31F WCI  15
ANN ARBOR      FAIR      21  13  71 S5        30.33F WCI  15
BAD AXE        FAIR       4   2  88 SE3       30.31F
CARO           FAIR      14   9  81 CALM      30.30F
DETROIT CITY   FAIR      25  14  63 S6        30.35F WCI  18
DETROIT        CLOUDY    24  15  68 S6        30.35F WCI  17
FLINT          FAIR      23  11  60 S6        30.32F WCI  16
GROSSE ILE     FAIR      21  18  86 S5        30.34F WCI  15
HILLSDALE      CLOUDY    22  15  72 S6        30.30F WCI  15
HOWELL         FAIR      24  13  64 SE3       30.30F

CITY           SKY/WX    TMP DP  RH WIND       PRES   REMARKS
JACKSON        CLOUDY    24  13  62 S8        30.31F WCI  15
LAMBERTVILLE   FAIR      25  16  68 SW3       30.36F
LANSING        FAIR      24  13  62 CALM      30.31F
LAPEER         FAIR      15   9  75 CALM      30.32F
MASON          FAIR      23  15  71 CALM      30.31F
MT. CLEMENS    FAIR      13  10  85 SE3       30.33F
PONTIAC        MOCLDY    21  13  71 SE5       30.30F WCI  15
PORT HOPE        N/A     15   6  67 SW5       30.31F WCI   8
PORT HURON     FAIR      18  12  79 SE5       30.35F WCI  11
TRI CITIES     FAIR      22  12  65 S7        30.31F WCI  13
TROY           FAIR      27  13  56 SE3       30.35F
SAGINAW HB     FAIR      21  14  73 S7        30.31F WCI  13
$$
MIZ043>046-050>051-056>058-064>065-071>073-077>080-030600-
SOUTHWEST LOWER MICHIGAN

CITY           SKY/WX    TMP DP  RH WIND       PRES   REMARKS
BATTLE CREEK   CLOUDY    25  15  66 S7        30.30F WCI  17
BENTON HARBOR  CLOUDY    25  16  68 S3        30.31F
BIG RAPIDS     FAIR      20  11  68 CALM      30.28S
COLDWATER      CLOUDY    24  14  66 S3        30.31F
FREMONT        MOCLDY    22  13  66 S3        30.29F
HOLLAND        CLOUDY    24  16  71 SE5       30.31F WCI  18
GRAND RAPIDS   CLOUDY    23  14  68 S5        30.31F WCI  17
IONIA          FAIR      23  15  71 S6        30.30F WCI  16
KALAMAZOO      CLOUDY    25  15  66 S7        30.31F WCI  17
LUDINGTON      FAIR      21  13  72 CALM      30.29S
MARSHALL       CLOUDY    24  14  67 S5        30.31S WCI  18
MOUNT PLEASANT FAIR      23  13  66 CALM      30.28F
MUSKEGON       CLOUDY    24  15  68 S6        30.30F WCI  17
SOUTH HAVEN    CLOUDY    26  16  65 CALM      30.31F
$$
MIZ016>042-030600-
NORTHERN LOWER MICHIGAN

CITY           SKY/WX    TMP DP  RH WIND       PRES   REMARKS
ALPENA         FAIR       1  -6  72 CALM      30.30F
BEAVER ISLAND  FAIR      13   8  81 S3        30.25F
BELLAIRE       FAIR      -1  -5  83 CALM      30.29S
CADILLAC       FAIR       8   2  78 CALM      30.23S
CHARLEVOIX     FAIR       1  -3  85 CALM      30.29F
FRANKFORT      FAIR      14  10  86 CALM      30.27F
GAYLORD        FAIR      -6  -8  91 CALM      30.23F
GRAYLING       FAIR      -5 -10  79 CALM      30.25F
HARBOR SPRINGS FAIR       2  -2  83 NE3       30.26F
HOUGHTON LAKE  FAIR       4  -2  76 CALM      30.25F
MANISTEE       FAIR      16   9  73 E3        30.28F
OSCODA         FAIR       2  -6  72 CALM      30.29F
PELLSTON       FAIR      -5 -10  79 CALM      30.27F
ROGERS CITY    FAIR       4   1  88 CALM      30.30F
TRAVERSE CITY  FAIR       7   2  80 CALM      30.27F
$$
MIZ007>008-015-030600-
EASTERN UPPER MICHIGAN

CITY           SKY/WX    TMP DP  RH WIND       PRES   REMARKS
KINROSS        FAIR       3   0  85 S5        30.25F WCI  -6
MACKINAC ISLAN FAIR      13   5  70 S8        30.25F WCI   1
NEWBERRY       FAIR      11   7  85 S7        30.21F WCI   0
S. S. MARIE    FAIR       3  -1  83 E5        30.25F WCI  -6
MUNISING         N/A     18   9  68 S9        30.18F WCI   7
$$
MIZ004>006-011>014-085-030600-
CENTRAL UPPER MICHIGAN

CITY           SKY/WX    TMP DP  RH WIND       PRES   REMARKS
MANISTIQUE     CLOUDY    20  17  86 S12       30.22F WCI   8
ESCANABA       FAIR      18  12  79 S7        30.23F WCI   8
MENOMINEE      FAIR      21  12  68 SW6       30.22F WCI  14
SAWYER-GWINN   FAIR      12   5  73 S9        30.13F WCI   0
$$
MIZ001>003-009>011-084-030600-
WESTERN UPPER MICHIGAN

CITY           SKY/WX    TMP DP  RH WIND       PRES   REMARKS
IRON MOUNTAIN  FAIR      17   5  59 S6        30.14F WCI   9
HOUGHTON       FAIR       9   3  77 CALM      30.07F
COPPER HARBOR    N/A     17  12  80 CALM      30.09F
IRONWOOD       MOCLDY    19   3  49 S7        30.04F WCI  10
$$

ABBREVIATIONS USED IN REMARKS
   TC - TEMPERATURE IN CELSIUS
  WCI - WIND CHILL INDEX
   HX - HEAT INDEX
  VSB - VISIBILITY



USA.gov is the U.S. government's official web portal to all federal, state and local government web resources and services.